Year,Month,Day,Hour,Minute,Value (Times are PST for temperature in C)
2013,07,25,00,00,15.40
2013,07,25,00,01,15.40
2013,07,25,00,02,15.40
2013,07,25,00,03,15.30
2013,07,25,00,04,15.30
2013,07,25,00,05,15.30
2013,07,25,00,06,15.30
2013,07,25,00,07,15.30
2013,07,25,00,08,15.30
2013,07,25,00,09,15.30
2013,07,25,00,10,15.30
2013,07,25,00,11,15.30
2013,07,25,00,12,15.30
2013,07,25,00,13,15.30
2013,07,25,00,14,15.20
2013,07,25,00,15,15.20
2013,07,25,00,16,15.20
2013,07,25,00,17,15.20
2013,07,25,00,18,15.20
2013,07,25,00,19,15.20
2013,07,25,00,20,15.20
2013,07,25,00,21,15.10
2013,07,25,00,22,15.10
2013,07,25,00,23,15.10
2013,07,25,00,24,15.10
2013,07,25,00,25,15.10
2013,07,25,00,26,15.00
2013,07,25,00,27,15.00
2013,07,25,00,28,15.00
2013,07,25,00,29,15.00
2013,07,25,00,30,15.00
2013,07,25,00,31,15.00
2013,07,25,00,32,14.90
2013,07,25,00,33,14.90
2013,07,25,00,34,14.90
2013,07,25,00,35,14.90
2013,07,25,00,36,14.90
2013,07,25,00,37,14.90
2013,07,25,00,38,14.90
2013,07,25,00,39,14.90
2013,07,25,00,40,14.90
2013,07,25,00,41,14.80
2013,07,25,00,42,14.80
2013,07,25,00,43,14.80
2013,07,25,00,44,14.80
2013,07,25,00,45,14.80
2013,07,25,00,46,14.80
2013,07,25,00,47,14.80
2013,07,25,00,48,14.80
2013,07,25,00,49,14.80
2013,07,25,00,50,14.70
2013,07,25,00,51,14.70
2013,07,25,00,52,14.70
2013,07,25,00,53,14.70
2013,07,25,00,54,14.60
2013,07,25,00,55,14.60
2013,07,25,00,56,14.60
2013,07,25,00,57,14.60
2013,07,25,00,58,14.60
2013,07,25,00,59,14.50
2013,07,25,01,00,14.50
2013,07,25,01,01,14.50
2013,07,25,01,02,14.50
2013,07,25,01,03,14.40
2013,07,25,01,04,14.40
2013,07,25,01,05,14.40
2013,07,25,01,06,14.30
2013,07,25,01,07,14.30
2013,07,25,01,08,14.20
2013,07,25,01,09,14.20
2013,07,25,01,10,14.20
2013,07,25,01,11,14.20
2013,07,25,01,12,14.20
2013,07,25,01,13,14.20
2013,07,25,01,14,14.10
2013,07,25,01,15,14.10
2013,07,25,01,16,14.10
2013,07,25,01,17,14.00
2013,07,25,01,18,14.00
2013,07,25,01,19,14.00
2013,07,25,01,20,14.00
2013,07,25,01,21,13.90
2013,07,25,01,22,13.90
2013,07,25,01,23,13.90
2013,07,25,01,24,13.90
2013,07,25,01,25,13.80
2013,07,25,01,26,13.80
2013,07,25,01,27,13.80
2013,07,25,01,28,13.80
2013,07,25,01,29,13.80
2013,07,25,01,30,13.80
2013,07,25,01,31,13.70
2013,07,25,01,32,13.70
2013,07,25,01,33,13.70
2013,07,25,01,34,13.70
2013,07,25,01,35,13.70
2013,07,25,01,36,13.70
2013,07,25,01,37,13.70
2013,07,25,01,38,13.70
2013,07,25,01,39,13.70
2013,07,25,01,40,13.70
2013,07,25,01,41,13.60
2013,07,25,01,42,13.60
2013,07,25,01,43,13.60
2013,07,25,01,44,13.60
2013,07,25,01,45,13.60
2013,07,25,01,46,13.60
2013,07,25,01,47,13.60
2013,07,25,01,48,13.50
2013,07,25,01,49,13.50
2013,07,25,01,50,13.50
2013,07,25,01,51,13.50
2013,07,25,01,52,13.50
2013,07,25,01,53,13.40
2013,07,25,01,54,13.40
2013,07,25,01,55,13.30
2013,07,25,01,56,13.30
2013,07,25,01,57,13.30
2013,07,25,01,58,13.30
2013,07,25,01,59,13.30
2013,07,25,02,00,13.30
2013,07,25,02,01,13.20
2013,07,25,02,02,13.20
2013,07,25,02,03,13.20
2013,07,25,02,04,13.10
2013,07,25,02,05,13.10
2013,07,25,02,06,13.10
2013,07,25,02,07,13.00
2013,07,25,02,08,13.00
2013,07,25,02,09,13.00
2013,07,25,02,10,13.00
2013,07,25,02,11,13.00
2013,07,25,02,12,13.10
2013,07,25,02,13,13.10
2013,07,25,02,14,13.10
2013,07,25,02,15,13.10
2013,07,25,02,16,13.10
2013,07,25,02,17,13.10
2013,07,25,02,18,13.10
2013,07,25,02,19,13.00
2013,07,25,02,20,13.00
2013,07,25,02,21,13.00
2013,07,25,02,22,13.00
2013,07,25,02,23,12.90
2013,07,25,02,24,12.90
2013,07,25,02,25,12.90
2013,07,25,02,26,12.90
2013,07,25,02,27,12.90
2013,07,25,02,28,12.90
2013,07,25,02,29,12.80
2013,07,25,02,30,12.80
2013,07,25,02,31,12.80
2013,07,25,02,32,12.80
2013,07,25,02,33,12.80
2013,07,25,02,34,12.80
2013,07,25,02,35,12.80
2013,07,25,02,36,12.80
2013,07,25,02,37,12.80
2013,07,25,02,38,12.80
2013,07,25,02,39,12.80
2013,07,25,02,40,12.80
2013,07,25,02,41,12.80
2013,07,25,02,42,12.80
2013,07,25,02,43,12.80
2013,07,25,02,44,12.80
2013,07,25,02,45,12.80
2013,07,25,02,46,12.80
2013,07,25,02,47,12.80
2013,07,25,02,48,12.80
2013,07,25,02,49,12.80
2013,07,25,02,50,12.80
2013,07,25,02,51,12.80
2013,07,25,02,52,12.80
2013,07,25,02,53,12.80
2013,07,25,02,54,12.80
2013,07,25,02,55,12.80
2013,07,25,02,56,12.80
2013,07,25,02,57,12.80
2013,07,25,02,58,12.80
2013,07,25,02,59,12.80
2013,07,25,03,00,12.80
2013,07,25,03,01,12.80
2013,07,25,03,02,12.80
2013,07,25,03,03,12.80
2013,07,25,03,04,12.80
2013,07,25,03,05,12.80
2013,07,25,03,06,12.80
2013,07,25,03,07,12.80
2013,07,25,03,08,12.80
2013,07,25,03,09,12.80
2013,07,25,03,10,12.80
2013,07,25,03,11,12.80
2013,07,25,03,12,12.80
2013,07,25,03,13,12.80
2013,07,25,03,14,12.90
2013,07,25,03,15,13.00
2013,07,25,03,16,13.00
2013,07,25,03,17,13.00
2013,07,25,03,18,13.00
2013,07,25,03,19,13.00
2013,07,25,03,20,13.00
2013,07,25,03,21,13.00
2013,07,25,03,22,13.00
2013,07,25,03,23,13.00
2013,07,25,03,24,13.00
2013,07,25,03,25,13.00
2013,07,25,03,26,13.00
2013,07,25,03,27,13.00
2013,07,25,03,28,13.00
2013,07,25,03,29,12.90
2013,07,25,03,30,12.90
2013,07,25,03,31,12.90
2013,07,25,03,32,12.90
2013,07,25,03,33,12.90
2013,07,25,03,34,12.80
2013,07,25,03,35,12.80
2013,07,25,03,36,12.80
2013,07,25,03,37,12.80
2013,07,25,03,38,12.80
2013,07,25,03,39,12.80
2013,07,25,03,40,12.80
2013,07,25,03,41,12.80
2013,07,25,03,42,12.80
2013,07,25,03,43,12.80
2013,07,25,03,44,12.80
2013,07,25,03,45,12.80
2013,07,25,03,46,12.80
2013,07,25,03,47,12.80
2013,07,25,03,48,12.80
2013,07,25,03,49,12.80
2013,07,25,03,50,12.70
2013,07,25,03,51,12.70
2013,07,25,03,52,12.70
2013,07,25,03,53,12.70
2013,07,25,03,54,12.70
2013,07,25,03,55,12.70
2013,07,25,03,56,12.70
2013,07,25,03,57,12.80
2013,07,25,03,58,12.70
2013,07,25,03,59,12.70
2013,07,25,04,00,12.70
2013,07,25,04,01,12.70
2013,07,25,04,02,12.70
2013,07,25,04,03,12.70
2013,07,25,04,04,12.60
2013,07,25,04,05,12.60
2013,07,25,04,06,12.60
2013,07,25,04,07,12.50
2013,07,25,04,08,12.50
2013,07,25,04,09,12.50
2013,07,25,04,10,12.50
2013,07,25,04,11,12.40
2013,07,25,04,12,12.40
2013,07,25,04,13,12.40
2013,07,25,04,14,12.40
2013,07,25,04,15,12.40
2013,07,25,04,16,12.40
2013,07,25,04,17,12.40
2013,07,25,04,18,12.40
2013,07,25,04,19,12.40
2013,07,25,04,20,12.40
2013,07,25,04,21,12.40
2013,07,25,04,22,12.30
2013,07,25,04,23,12.30
2013,07,25,04,24,12.30
2013,07,25,04,25,12.30
2013,07,25,04,26,12.20
2013,07,25,04,27,12.20
2013,07,25,04,28,12.20
2013,07,25,04,29,12.10
2013,07,25,04,30,12.10
2013,07,25,04,31,12.10
2013,07,25,04,32,12.10
2013,07,25,04,33,12.10
2013,07,25,04,34,12.10
2013,07,25,04,35,12.00
2013,07,25,04,36,12.00
2013,07,25,04,37,12.00
2013,07,25,04,38,12.00
2013,07,25,04,39,12.00
2013,07,25,04,40,11.90
2013,07,25,04,41,11.90
2013,07,25,04,42,11.80
2013,07,25,04,43,11.80
2013,07,25,04,44,11.80
2013,07,25,04,45,11.80
2013,07,25,04,46,11.80
2013,07,25,04,47,11.80
2013,07,25,04,48,11.70
2013,07,25,04,49,11.70
2013,07,25,04,50,11.70
2013,07,25,04,51,11.70
2013,07,25,04,52,11.60
2013,07,25,04,53,11.60
2013,07,25,04,54,11.60
2013,07,25,04,55,11.60
2013,07,25,04,56,11.60
2013,07,25,04,57,11.60
2013,07,25,04,58,11.60
2013,07,25,04,59,11.60
2013,07,25,05,00,11.60
2013,07,25,05,01,11.60
2013,07,25,05,02,11.70
2013,07,25,05,03,11.70
2013,07,25,05,04,11.70
2013,07,25,05,05,11.70
2013,07,25,05,06,11.70
2013,07,25,05,07,11.80
2013,07,25,05,08,11.80
2013,07,25,05,09,11.80
2013,07,25,05,10,11.80
2013,07,25,05,11,11.80
2013,07,25,05,12,11.80
2013,07,25,05,13,11.80
2013,07,25,05,14,11.80
2013,07,25,05,15,11.90
2013,07,25,05,16,11.90
2013,07,25,05,17,11.90
2013,07,25,05,18,11.90
2013,07,25,05,19,12.00
2013,07,25,05,20,12.00
2013,07,25,05,21,12.10
2013,07,25,05,22,12.20
2013,07,25,05,23,12.20
2013,07,25,05,24,12.30
2013,07,25,05,25,12.30
2013,07,25,05,26,12.30
2013,07,25,05,27,12.40
2013,07,25,05,28,12.50
2013,07,25,05,29,12.50
2013,07,25,05,30,12.50
2013,07,25,05,31,12.60
2013,07,25,05,32,12.60
2013,07,25,05,33,12.60
2013,07,25,05,34,12.70
2013,07,25,05,35,12.70
2013,07,25,05,36,12.80
2013,07,25,05,37,12.80
2013,07,25,05,38,12.90
2013,07,25,05,39,13.00
2013,07,25,05,40,13.10
2013,07,25,05,41,13.10
2013,07,25,05,42,13.20
2013,07,25,05,43,13.30
2013,07,25,05,44,13.30
2013,07,25,05,45,13.40
2013,07,25,05,46,13.50
2013,07,25,05,47,13.50
2013,07,25,05,48,13.60
2013,07,25,05,49,13.60
2013,07,25,05,50,13.70
2013,07,25,05,51,13.70
2013,07,25,05,52,13.80
2013,07,25,05,53,13.90
2013,07,25,05,54,13.90
2013,07,25,05,55,14.00
2013,07,25,05,56,14.00
2013,07,25,05,57,14.10
2013,07,25,05,58,14.10
2013,07,25,05,59,14.20
2013,07,25,06,00,14.20
2013,07,25,06,01,14.20
2013,07,25,06,02,14.20
2013,07,25,06,03,14.20
2013,07,25,06,04,14.30
2013,07,25,06,05,14.40
2013,07,25,06,06,14.40
2013,07,25,06,07,14.50
2013,07,25,06,08,14.50
2013,07,25,06,09,14.60
2013,07,25,06,10,14.70
2013,07,25,06,11,14.80
2013,07,25,06,12,14.80
2013,07,25,06,13,14.80
2013,07,25,06,14,14.90
2013,07,25,06,15,14.90
2013,07,25,06,16,15.00
2013,07,25,06,17,15.00
2013,07,25,06,18,15.00
2013,07,25,06,19,15.00
2013,07,25,06,20,14.90
2013,07,25,06,21,14.90
2013,07,25,06,22,14.90
2013,07,25,06,23,14.80
2013,07,25,06,24,14.80
2013,07,25,06,25,14.80
2013,07,25,06,26,14.70
2013,07,25,06,27,14.70
2013,07,25,06,28,14.60
2013,07,25,06,29,14.60
2013,07,25,06,30,14.50
2013,07,25,06,31,14.50
2013,07,25,06,32,14.50
2013,07,25,06,33,14.50
2013,07,25,06,34,14.50
2013,07,25,06,35,14.50
2013,07,25,06,36,14.50
2013,07,25,06,37,14.50
2013,07,25,06,38,14.50
2013,07,25,06,39,14.40
2013,07,25,06,40,14.40
2013,07,25,06,41,14.40
2013,07,25,06,42,14.40
2013,07,25,06,43,14.50
2013,07,25,06,44,14.50
2013,07,25,06,45,14.50
2013,07,25,06,46,14.50
2013,07,25,06,47,14.60
2013,07,25,06,48,14.60
2013,07,25,06,49,14.60
2013,07,25,06,50,14.70
2013,07,25,06,51,14.70
2013,07,25,06,52,14.70
2013,07,25,06,53,14.80
2013,07,25,06,54,14.80
2013,07,25,06,55,14.80
2013,07,25,06,56,14.80
2013,07,25,06,57,14.90
2013,07,25,06,58,14.90
2013,07,25,06,59,14.90
2013,07,25,07,00,14.90
2013,07,25,07,01,14.90
2013,07,25,07,02,14.90
2013,07,25,07,03,15.00
2013,07,25,07,04,15.00
2013,07,25,07,05,15.00
2013,07,25,07,06,15.10
2013,07,25,07,07,15.10
2013,07,25,07,08,15.20
2013,07,25,07,09,15.20
2013,07,25,07,10,15.20
2013,07,25,07,11,15.30
2013,07,25,07,12,15.30
2013,07,25,07,13,15.30
2013,07,25,07,14,15.30
2013,07,25,07,15,15.40
2013,07,25,07,16,15.40
2013,07,25,07,17,15.50
2013,07,25,07,18,15.60
2013,07,25,07,19,15.60
2013,07,25,07,20,15.70
2013,07,25,07,21,15.70
2013,07,25,07,22,15.80
2013,07,25,07,23,15.80
2013,07,25,07,24,15.70
2013,07,25,07,25,15.70
2013,07,25,07,26,15.70
2013,07,25,07,27,15.70
2013,07,25,07,28,15.70
2013,07,25,07,29,15.70
2013,07,25,07,30,15.70
2013,07,25,07,31,15.70
2013,07,25,07,32,15.70
2013,07,25,07,33,15.80
2013,07,25,07,34,15.80
2013,07,25,07,35,15.80
2013,07,25,07,36,15.80
2013,07,25,07,37,15.90
2013,07,25,07,38,15.90
2013,07,25,07,39,16.00
2013,07,25,07,40,16.10
2013,07,25,07,41,16.10
2013,07,25,07,42,16.10
2013,07,25,07,43,16.20
2013,07,25,07,44,16.30
2013,07,25,07,45,16.40
2013,07,25,07,46,16.40
2013,07,25,07,47,16.50
2013,07,25,07,48,16.60
2013,07,25,07,49,16.70
2013,07,25,07,50,16.80
2013,07,25,07,51,16.80
2013,07,25,07,52,16.90
2013,07,25,07,53,17.00
2013,07,25,07,54,17.10
2013,07,25,07,55,17.20
2013,07,25,07,56,17.30
2013,07,25,07,57,17.30
2013,07,25,07,58,17.30
2013,07,25,07,59,17.30
2013,07,25,08,00,17.30
2013,07,25,08,01,17.30
2013,07,25,08,02,17.30
2013,07,25,08,03,17.30
2013,07,25,08,04,17.40
2013,07,25,08,05,17.50
2013,07,25,08,06,17.50
2013,07,25,08,07,17.60
2013,07,25,08,08,17.70
2013,07,25,08,09,17.70
2013,07,25,08,10,17.70
2013,07,25,08,11,17.60
2013,07,25,08,12,17.50
2013,07,25,08,13,17.50
2013,07,25,08,14,17.50
2013,07,25,08,15,17.50
2013,07,25,08,16,17.50
2013,07,25,08,17,17.50
2013,07,25,08,18,17.40
2013,07,25,08,19,17.40
2013,07,25,08,20,17.40
2013,07,25,08,21,17.40
2013,07,25,08,22,17.40
2013,07,25,08,23,17.40
2013,07,25,08,24,17.40
2013,07,25,08,25,17.50
2013,07,25,08,26,17.50
2013,07,25,08,27,17.60
2013,07,25,08,28,17.60
2013,07,25,08,29,17.60
2013,07,25,08,30,17.60
2013,07,25,08,31,17.60
2013,07,25,08,32,17.50
2013,07,25,08,33,17.60
2013,07,25,08,34,17.60
2013,07,25,08,35,17.60
2013,07,25,08,36,17.60
2013,07,25,08,37,17.70
2013,07,25,08,38,17.70
2013,07,25,08,39,17.70
2013,07,25,08,40,17.80
2013,07,25,08,41,17.90
2013,07,25,08,42,17.90
2013,07,25,08,43,17.80
2013,07,25,08,44,17.80
2013,07,25,08,45,17.90
2013,07,25,08,46,17.90
2013,07,25,08,47,17.90
2013,07,25,08,48,17.90
2013,07,25,08,49,17.90
2013,07,25,08,50,18.00
2013,07,25,08,51,18.10
2013,07,25,08,52,18.10
2013,07,25,08,53,18.10
2013,07,25,08,54,18.20
2013,07,25,08,55,18.20
2013,07,25,08,56,18.20
2013,07,25,08,57,18.20
2013,07,25,08,58,18.20
2013,07,25,08,59,18.20
2013,07,25,09,00,18.20
2013,07,25,09,01,18.20
2013,07,25,09,02,18.10
2013,07,25,09,03,18.10
2013,07,25,09,04,18.20
2013,07,25,09,05,18.20
2013,07,25,09,06,18.20
2013,07,25,09,07,18.20
2013,07,25,09,08,18.30
2013,07,25,09,09,18.30
2013,07,25,09,10,18.40
2013,07,25,09,11,18.40
2013,07,25,09,12,18.50
2013,07,25,09,13,18.60
2013,07,25,09,14,18.60
2013,07,25,09,15,18.60
2013,07,25,09,16,18.60
2013,07,25,09,17,18.70
2013,07,25,09,18,18.80
2013,07,25,09,19,18.90
2013,07,25,09,20,18.90
2013,07,25,09,21,18.90
2013,07,25,09,22,18.90
2013,07,25,09,23,19.10
2013,07,25,09,24,19.10
2013,07,25,09,25,19.10
2013,07,25,09,26,19.10
2013,07,25,09,27,19.10
2013,07,25,09,28,19.10
2013,07,25,09,29,19.20
2013,07,25,09,30,19.20
2013,07,25,09,31,19.20
2013,07,25,09,32,19.20
2013,07,25,09,33,19.30
2013,07,25,09,34,19.30
2013,07,25,09,35,19.40
2013,07,25,09,36,19.30
2013,07,25,09,37,19.30
2013,07,25,09,38,19.40
2013,07,25,09,39,19.40
2013,07,25,09,40,19.30
2013,07,25,09,41,19.30
2013,07,25,09,42,19.30
2013,07,25,09,43,19.20
2013,07,25,09,44,19.20
2013,07,25,09,45,19.30
2013,07,25,09,46,19.40
2013,07,25,09,47,19.50
2013,07,25,09,48,19.60
2013,07,25,09,49,19.60
2013,07,25,09,50,19.60
2013,07,25,09,51,19.60
2013,07,25,09,52,19.70
2013,07,25,09,53,19.80
2013,07,25,09,54,19.90
2013,07,25,09,55,19.90
2013,07,25,09,56,19.90
2013,07,25,09,57,19.90
2013,07,25,09,58,19.90
2013,07,25,09,59,19.90
2013,07,25,10,00,19.90
2013,07,25,10,01,19.90
2013,07,25,10,02,19.90
2013,07,25,10,03,19.90
2013,07,25,10,04,19.90
2013,07,25,10,05,19.90
2013,07,25,10,06,19.90
2013,07,25,10,07,20.00
2013,07,25,10,08,20.10
2013,07,25,10,09,20.20
2013,07,25,10,10,20.40
2013,07,25,10,11,20.50
2013,07,25,10,12,20.60
2013,07,25,10,13,20.70
2013,07,25,10,14,20.70
2013,07,25,10,15,20.70
2013,07,25,10,16,20.80
2013,07,25,10,17,20.80
2013,07,25,10,18,20.80
2013,07,25,10,19,21.00
2013,07,25,10,20,21.00
2013,07,25,10,21,21.00
2013,07,25,10,22,21.00
2013,07,25,10,23,21.00
2013,07,25,10,24,21.00
2013,07,25,10,25,21.00
2013,07,25,10,26,21.00
2013,07,25,10,27,20.90
2013,07,25,10,28,20.90
2013,07,25,10,29,20.90
2013,07,25,10,30,21.00
2013,07,25,10,31,20.90
2013,07,25,10,32,20.90
2013,07,25,10,33,21.00
2013,07,25,10,34,21.00
2013,07,25,10,35,21.00
2013,07,25,10,36,21.00
2013,07,25,10,37,21.00
2013,07,25,10,38,21.10
2013,07,25,10,39,21.10
2013,07,25,10,40,21.20
2013,07,25,10,41,21.40
2013,07,25,10,42,21.50
2013,07,25,10,43,21.70
2013,07,25,10,44,21.80
2013,07,25,10,45,21.90
2013,07,25,10,46,21.90
2013,07,25,10,47,21.90
2013,07,25,10,48,21.70
2013,07,25,10,49,21.70
2013,07,25,10,50,21.60
2013,07,25,10,51,21.50
2013,07,25,10,52,21.30
2013,07,25,10,53,21.40
2013,07,25,10,54,21.50
2013,07,25,10,55,21.60
2013,07,25,10,56,21.80
2013,07,25,10,57,21.90
2013,07,25,10,58,22.10
2013,07,25,10,59,22.30
2013,07,25,11,00,22.40
2013,07,25,11,01,22.50
2013,07,25,11,02,22.40
2013,07,25,11,03,22.30
2013,07,25,11,04,22.20
2013,07,25,11,05,22.00
2013,07,25,11,06,21.90
2013,07,25,11,07,21.80
2013,07,25,11,08,21.80
2013,07,25,11,09,22.00
2013,07,25,11,10,22.00
2013,07,25,11,11,22.20
2013,07,25,11,12,22.30
2013,07,25,11,13,22.50
2013,07,25,11,14,22.60
2013,07,25,11,15,22.60
2013,07,25,11,16,22.70
2013,07,25,11,17,22.80
2013,07,25,11,18,22.90
2013,07,25,11,19,22.90
2013,07,25,11,20,22.80
2013,07,25,11,21,22.60
2013,07,25,11,22,22.40
2013,07,25,11,23,22.30
2013,07,25,11,24,22.10
2013,07,25,11,25,21.90
2013,07,25,11,26,21.70
2013,07,25,11,27,21.60
2013,07,25,11,28,21.40
2013,07,25,11,29,21.30
2013,07,25,11,30,21.40
2013,07,25,11,31,21.60
2013,07,25,11,32,21.60
2013,07,25,11,33,21.70
2013,07,25,11,34,21.90
2013,07,25,11,35,21.90
2013,07,25,11,36,21.90
2013,07,25,11,37,22.00
2013,07,25,11,38,22.00
2013,07,25,11,39,22.00
2013,07,25,11,40,21.80
2013,07,25,11,41,21.80
2013,07,25,11,42,21.80
2013,07,25,11,43,21.70
2013,07,25,11,44,21.60
2013,07,25,11,45,21.50
2013,07,25,11,46,21.50
2013,07,25,11,47,21.60
2013,07,25,11,48,21.60
2013,07,25,11,49,21.60
2013,07,25,11,50,21.60
2013,07,25,11,51,21.50
2013,07,25,11,52,21.40
2013,07,25,11,53,21.40
2013,07,25,11,54,21.60
2013,07,25,11,55,21.60
2013,07,25,11,56,21.80
2013,07,25,11,57,21.90
2013,07,25,11,58,21.90
2013,07,25,11,59,21.90
2013,07,25,12,00,21.70
2013,07,25,12,01,21.70
2013,07,25,12,02,21.80
2013,07,25,12,03,21.70
2013,07,25,12,04,21.80
2013,07,25,12,05,21.80
2013,07,25,12,06,21.80
2013,07,25,12,07,21.70
2013,07,25,12,08,21.70
2013,07,25,12,09,21.70
2013,07,25,12,10,21.60
2013,07,25,12,11,21.60
2013,07,25,12,12,21.60
2013,07,25,12,13,21.60
2013,07,25,12,14,21.50
2013,07,25,12,15,21.40
2013,07,25,12,16,21.40
2013,07,25,12,17,21.40
2013,07,25,12,18,21.40
2013,07,25,12,19,21.50
2013,07,25,12,20,21.40
2013,07,25,12,21,21.40
2013,07,25,12,22,21.30
2013,07,25,12,23,21.20
2013,07,25,12,24,21.10
2013,07,25,12,25,21.00
2013,07,25,12,26,20.90
2013,07,25,12,27,21.00
2013,07,25,12,28,21.10
2013,07,25,12,29,21.30
2013,07,25,12,30,21.30
2013,07,25,12,31,21.20
2013,07,25,12,32,21.20
2013,07,25,12,33,21.10
2013,07,25,12,34,21.10
2013,07,25,12,35,21.10
2013,07,25,12,36,21.20
2013,07,25,12,37,21.30
2013,07,25,12,38,21.30
2013,07,25,12,39,21.40
2013,07,25,12,40,21.40
2013,07,25,12,41,21.30
2013,07,25,12,42,21.30
2013,07,25,12,43,21.40
2013,07,25,12,44,21.60
2013,07,25,12,45,21.60
2013,07,25,12,46,21.60
2013,07,25,12,47,21.60
2013,07,25,12,48,21.70
2013,07,25,12,49,21.80
2013,07,25,12,50,21.60
2013,07,25,12,51,21.70
2013,07,25,12,52,21.80
2013,07,25,12,53,22.00
2013,07,25,12,54,22.10
2013,07,25,12,55,22.10
2013,07,25,12,56,22.10
2013,07,25,12,57,22.10
2013,07,25,12,58,22.20
2013,07,25,12,59,22.40
2013,07,25,13,00,22.50
2013,07,25,13,01,22.40
2013,07,25,13,02,22.20
2013,07,25,13,03,22.00
2013,07,25,13,04,22.00
2013,07,25,13,05,22.00
2013,07,25,13,06,22.00
2013,07,25,13,07,22.20
2013,07,25,13,08,22.30
2013,07,25,13,09,22.40
2013,07,25,13,10,22.40
2013,07,25,13,11,22.40
2013,07,25,13,12,22.40
2013,07,25,13,13,22.50
2013,07,25,13,14,22.50
2013,07,25,13,15,22.40
2013,07,25,13,16,22.30
2013,07,25,13,17,22.40
2013,07,25,13,18,22.50
2013,07,25,13,19,22.50
2013,07,25,13,20,22.60
2013,07,25,13,21,22.80
2013,07,25,13,22,22.80
2013,07,25,13,23,22.90
2013,07,25,13,24,23.00
2013,07,25,13,25,23.10
2013,07,25,13,26,23.20
2013,07,25,13,27,23.30
2013,07,25,13,28,23.30
2013,07,25,13,29,23.30
2013,07,25,13,30,23.10
2013,07,25,13,31,23.00
2013,07,25,13,32,23.00
2013,07,25,13,33,23.10
2013,07,25,13,34,23.10
2013,07,25,13,35,23.10
2013,07,25,13,36,23.00
2013,07,25,13,37,22.70
2013,07,25,13,38,22.70
2013,07,25,13,39,22.70
2013,07,25,13,40,22.70
2013,07,25,13,41,22.70
2013,07,25,13,42,22.70
2013,07,25,13,43,22.50
2013,07,25,13,44,22.30
2013,07,25,13,45,22.10
2013,07,25,13,46,22.00
2013,07,25,13,47,22.00
2013,07,25,13,48,21.90
2013,07,25,13,49,21.90
2013,07,25,13,50,21.90
2013,07,25,13,51,21.90
2013,07,25,13,52,22.00
2013,07,25,13,53,22.10
2013,07,25,13,54,22.30
2013,07,25,13,55,22.30
2013,07,25,13,56,22.40
2013,07,25,13,57,22.50
2013,07,25,13,58,22.50
2013,07,25,13,59,22.40
2013,07,25,14,00,22.30
2013,07,25,14,01,22.00
2013,07,25,14,02,21.90
2013,07,25,14,03,22.00
2013,07,25,14,04,22.10
2013,07,25,14,05,22.20
2013,07,25,14,06,22.40
2013,07,25,14,07,22.40
2013,07,25,14,08,22.40
2013,07,25,14,09,22.40
2013,07,25,14,10,22.60
2013,07,25,14,11,22.70
2013,07,25,14,12,22.70
2013,07,25,14,13,22.70
2013,07,25,14,14,22.70
2013,07,25,14,15,22.60
2013,07,25,14,16,22.60
2013,07,25,14,17,22.50
2013,07,25,14,18,22.40
2013,07,25,14,19,22.20
2013,07,25,14,20,22.20
2013,07,25,14,21,22.20
2013,07,25,14,22,22.30
2013,07,25,14,23,22.30
2013,07,25,14,24,22.30
2013,07,25,14,25,22.30
2013,07,25,14,26,22.20
2013,07,25,14,27,22.10
2013,07,25,14,28,22.10
2013,07,25,14,29,22.10
2013,07,25,14,30,22.10
2013,07,25,14,31,22.10
2013,07,25,14,32,22.00
2013,07,25,14,33,22.00
2013,07,25,14,34,22.10
2013,07,25,14,35,22.10
2013,07,25,14,36,22.20
2013,07,25,14,37,22.30
2013,07,25,14,38,22.30
2013,07,25,14,39,22.30
2013,07,25,14,40,22.20
2013,07,25,14,41,22.20
2013,07,25,14,42,22.00
2013,07,25,14,43,21.80
2013,07,25,14,44,21.80
2013,07,25,14,45,22.00
2013,07,25,14,46,22.10
2013,07,25,14,47,22.30
2013,07,25,14,48,22.40
2013,07,25,14,49,22.60
2013,07,25,14,50,22.70
2013,07,25,14,51,22.80
2013,07,25,14,52,22.80
2013,07,25,14,53,22.90
2013,07,25,14,54,22.80
2013,07,25,14,55,22.60
2013,07,25,14,56,22.50
2013,07,25,14,57,22.40
2013,07,25,14,58,22.40
2013,07,25,14,59,22.40
2013,07,25,15,00,22.30
2013,07,25,15,01,22.40
2013,07,25,15,02,22.40
2013,07,25,15,03,22.30
2013,07,25,15,04,22.10
2013,07,25,15,05,21.90
2013,07,25,15,06,21.60
2013,07,25,15,07,21.50
2013,07,25,15,08,21.40
2013,07,25,15,09,21.40
2013,07,25,15,10,21.40
2013,07,25,15,11,21.50
2013,07,25,15,12,21.60
2013,07,25,15,13,21.70
2013,07,25,15,14,21.80
2013,07,25,15,15,21.80
2013,07,25,15,16,21.80
2013,07,25,15,17,21.80
2013,07,25,15,18,21.90
2013,07,25,15,19,21.90
2013,07,25,15,20,21.90
2013,07,25,15,21,21.80
2013,07,25,15,22,21.60
2013,07,25,15,23,21.50
2013,07,25,15,24,21.40
2013,07,25,15,25,21.50
2013,07,25,15,26,21.60
2013,07,25,15,27,21.80
2013,07,25,15,28,21.80
2013,07,25,15,29,21.90
2013,07,25,15,30,21.90
2013,07,25,15,31,21.90
2013,07,25,15,32,22.00
2013,07,25,15,33,22.10
2013,07,25,15,34,22.00
2013,07,25,15,35,21.80
2013,07,25,15,36,21.70
2013,07,25,15,37,21.50
2013,07,25,15,38,21.40
2013,07,25,15,39,21.30
2013,07,25,15,40,21.30
2013,07,25,15,41,21.40
2013,07,25,15,42,21.50
2013,07,25,15,43,21.70
2013,07,25,15,44,21.90
2013,07,25,15,45,21.90
2013,07,25,15,46,22.00
2013,07,25,15,47,22.10
2013,07,25,15,48,22.10
2013,07,25,15,49,22.10
2013,07,25,15,50,22.00
2013,07,25,15,51,22.00
2013,07,25,15,52,22.00
2013,07,25,15,53,22.00
2013,07,25,15,54,22.00
2013,07,25,15,55,22.00
2013,07,25,15,56,21.90
2013,07,25,15,57,21.60
2013,07,25,15,58,21.40
2013,07,25,15,59,21.40
2013,07,25,16,00,21.30
2013,07,25,16,01,21.30
2013,07,25,16,02,21.30
2013,07,25,16,03,21.30
2013,07,25,16,04,21.30
2013,07,25,16,05,21.30
2013,07,25,16,06,21.30
2013,07,25,16,07,21.30
2013,07,25,16,08,21.30
2013,07,25,16,09,21.20
2013,07,25,16,10,21.20
2013,07,25,16,11,21.20
2013,07,25,16,12,21.20
2013,07,25,16,13,21.30
2013,07,25,16,14,21.50
2013,07,25,16,15,21.60
2013,07,25,16,16,21.60
2013,07,25,16,17,21.60
2013,07,25,16,18,21.70
2013,07,25,16,19,21.90
2013,07,25,16,20,22.00
2013,07,25,16,21,22.10
2013,07,25,16,22,22.00
2013,07,25,16,23,21.70
2013,07,25,16,24,21.40
2013,07,25,16,25,21.20
2013,07,25,16,26,21.00
2013,07,25,16,27,21.00
2013,07,25,16,28,20.90
2013,07,25,16,29,21.00
2013,07,25,16,30,20.90
2013,07,25,16,31,20.90
2013,07,25,16,32,20.90
2013,07,25,16,33,20.90
2013,07,25,16,34,21.00
2013,07,25,16,35,21.10
2013,07,25,16,36,21.30
2013,07,25,16,37,21.40
2013,07,25,16,38,21.60
2013,07,25,16,39,21.60
2013,07,25,16,40,21.70
2013,07,25,16,41,21.70
2013,07,25,16,42,21.80
2013,07,25,16,43,21.90
2013,07,25,16,44,21.90
2013,07,25,16,45,21.90
2013,07,25,16,46,21.90
2013,07,25,16,47,21.90
2013,07,25,16,48,21.90
2013,07,25,16,49,21.80
2013,07,25,16,50,21.80
2013,07,25,16,51,21.90
2013,07,25,16,52,22.00
2013,07,25,16,53,22.10
2013,07,25,16,54,22.20
2013,07,25,16,55,22.10
2013,07,25,16,56,22.10
2013,07,25,16,57,22.10
2013,07,25,16,58,22.10
2013,07,25,16,59,22.20
2013,07,25,17,00,22.10
2013,07,25,17,01,22.00
2013,07,25,17,02,21.90
2013,07,25,17,03,21.70
2013,07,25,17,04,21.70
2013,07,25,17,05,21.60
2013,07,25,17,06,21.60
2013,07,25,17,07,21.60
2013,07,25,17,08,21.60
2013,07,25,17,09,21.60
2013,07,25,17,10,21.60
2013,07,25,17,11,21.40
2013,07,25,17,12,21.30
2013,07,25,17,13,21.10
2013,07,25,17,14,21.10
2013,07,25,17,15,21.00
2013,07,25,17,16,21.00
2013,07,25,17,17,21.00
2013,07,25,17,18,21.00
2013,07,25,17,19,20.90